Location: Hohe Wand Kleine Kanzel
(47.8330°N, 16.0170°E)
Time: 09:46:11
(UTC+02:00)

Transit 2A Rocket - Visible Passes

Search period start: 24 July 2021 00:00
Search period end: 03 August 2021 00:00
Orbit: 590 x 913 km, 66.7° (Epoch: 23 July)

Date Brightness Start Highest point End Pass type
(mag) Time Alt. Az. Time Alt. Az. Time Alt. Az.
24 Jul 6.9 00:05:52 10° NNW 00:10:20 27° NE 00:15:06 10° E visible
24 Jul 5.1 01:48:00 10° NW 01:53:25 75° WSW 01:55:35 39° SSE visible
24 Jul 6.9 03:32:40 10° WNW 03:35:16 13° WSW 03:35:25 13° WSW visible
24 Jul 7.2 23:23:29 10° NNW 23:27:19 20° NNE 23:31:21 10° E visible
25 Jul 5.3 01:05:22 10° NNW 01:10:46 73° NE 01:13:18 34° SE visible
25 Jul 6.4 02:48:46 10° WNW 02:52:57 22° WSW 02:53:09 22° WSW visible
25 Jul 7.5 22:41:09 10° N 22:44:11 15° NNE 22:47:22 10° ENE visible
26 Jul 5.9 00:22:49 10° NNW 00:28:01 48° NE 00:31:08 24° ESE visible
26 Jul 5.8 02:05:34 10° NW 02:10:32 35° WSW 02:11:00 35° SW visible
26 Jul 7.6 21:58:56 10° N 22:00:58 12° NNE 22:03:04 10° NE visible
26 Jul 6.4 23:40:20 10° NNW 23:45:10 33° NE 23:49:04 16° E visible
27 Jul 5.3 01:22:41 10° NW 01:28:01 56° WSW 01:28:55 50° SSW visible
27 Jul 7.8 21:17:12 10° N 21:17:41 10° NNE 21:18:09 10° NNE visible
27 Jul 6.9 22:57:54 10° NNW 23:02:13 24° NE 23:06:47 10° E visible
28 Jul 5.1 00:39:57 10° NW 00:45:26 86° SW 00:46:56 52° SSE visible
28 Jul 6.9 02:24:01 10° WNW 02:26:48 16° W 02:26:48 16° W visible
28 Jul 7.2 22:15:32 10° NNW 22:19:09 18° NNE 22:22:57 10° ENE visible
28 Jul 5.4 23:57:21 10° NNW 00:02:44 63° NE 00:05:00 36° ESE visible
29 Jul 6.4 01:40:29 10° NW 01:44:52 26° WSW 01:44:52 26° WSW visible
29 Jul 7.4 21:33:13 10° N 21:35:59 14° NNE 21:38:52 10° NE visible
29 Jul 6.0 23:14:50 10° NNW 23:19:57 42° NE 23:23:08 23° ESE visible
30 Jul 5.7 00:57:26 10° NW 01:02:36 42° WSW 01:03:00 41° SW visible
30 Jul 6.5 22:32:22 10° NNW 22:37:04 30° NE 22:41:19 13° E visible
31 Jul 5.2 00:14:36 10° NW 00:20:04 66° WSW 00:21:11 53° S visible
31 Jul 7.3 01:59:57 10° W 02:01:04 11° W 02:01:04 11° W visible
31 Jul 6.9 21:49:57 10° NNW 21:54:04 22° NE 21:58:26 10° E visible
31 Jul 5.1 23:31:56 10° NNW 23:37:26 82° NE 23:39:25 43° SE visible
01 Aug 6.8 01:15:35 10° WNW 01:19:17 20° WSW 01:19:17 20° WSW visible
01 Aug 7.2 21:07:35 10° N 21:10:58 17° NNE 21:14:32 10° ENE visible
01 Aug 5.6 22:49:21 10° NNW 22:54:42 54° NE 22:57:41 27° ESE visible
02 Aug 6.2 00:32:16 10° NW 00:37:08 31° WSW 00:37:34 31° WSW visible
02 Aug 6.1 22:06:51 10° NNW 22:11:53 37° NE 22:16:00 16° ESE visible
